[[{"header":{"parameterUnit":"m.s-1","parameterCategory":1,"la1":30.2991,"la2":30.254,"lo1":-89.0895,"lo2":-89.0444,"dy":0.0017,"dx":0.0017,"nx":28,"ny":28,"refTime":"2024-08-13T09:00:00:Z","depth":0,"parameterNumber":2,"parameterNumberName":"U-component_of_WINDS"},"data":[0,0,0,0,0,0,0,0,0,0,0,0,0,0,0,0,0,0,0,0,0,0,0,0,0,0,0,0,0,0,0,0,0,0,0,0,0,0,0,0,0,0,0,0,0,0,0,0,0,0,0,0,0,0,0,0,0,0,3.1389,3.139,0,3.1484,3.1485,3.1486,3.1469,3.1467,3.1466,3.1464,3.1561,3.1565,3.1569,0,0,0,0,0,0,0,0,0,0,0,0,0,3.1192,3.1195,3.1389,3.139,3.1391,3.1483,3.1485,3.1486,3.1469,3.1467,3.1465,3.1463,3.156,3.1564,3.1569,0,0,0,0,0,0,0,0,0,0,0,0,0,3.1281,3.1197,3.1388,3.1394,3.1395,3.1483,3.1485,3.1486,3.147,3.1467,3.1465,3.1462,3.1558,3.1564,3.157,3.1659,0,0,3.1589,3.1592,0,0,0,0,0,0,0,0,3.1276,3.1288,3.1392,3.1394,3.1395,3.1462,3.1451,3.1544,3.147,3.1441,3.1464,3.1461,3.153,3.1538,3.1562,3.1663,3.1667,3.159,3.1593,3.1596,3.1598,0,0,0,0,0,0,0,3.127,3.1284,3.1426,3.1393,3.1396,3.1391,3.1401,3.1468,3.1499,3.1444,3.1443,3.1454,3.153,3.1556,3.1564,3.1669,3.1589,3.1595,3.1599,3.1601,3.1845,3.1848,0,0,0,0,0,0,3.1262,3.1279,3.1423,3.1429,3.1328,3.1397,3.1408,3.1443,3.1498,3.1504,3.1456,3.1453,3.1546,3.1557,3.1567,3.1672,3.1596,3.1602,3.1605,3.1842,3.1846,3.1849,0,0,0,0,0,0,3.1258,3.1275,3.1419,3.1354,3.1372,3.1403,3.1442,3.1446,3.1471,3.1507,3.1512,3.1476,3.1545,3.1558,3.1635,3.1675,3.1605,3.161,3.1839,3.1843,3.1847,3.1884,0,0,0,0,0,0,3.1252,3.1274,3.1308,3.1355,3.1375,3.1486,3.1445,3.145,3.1482,3.1479,3.1528,3.1533,3.1544,3.1626,3.1642,3.1682,3.1615,3.1836,3.1841,3.1846,3.1879,3.1888,3.1897,0,0,0,0,0,3.1245,3.1315,3.131,3.1327,3.1419,3.1489,3.1501,3.1511,3.1486,3.152,3.1542,3.1532,3.1669,3.1634,3.1651,3.1695,3.1833,3.1839,3.1845,3.1875,3.1887,3.1896,0,0,0,0,0,0,3.1272,3.1321,3.1316,3.1403,3.1442,3.1486,3.1529,3.1524,3.1571,3.1565,3.1577,3.1588,3.1666,3.1688,3.1649,3.1782,3.1747,3.1757,3.1764,3.1775,3.1784,3.1775,3.162,0,0,0,0,0,3.1288,3.1341,3.1381,3.1454,3.1474,3.1498,3.1529,3.1534,3.1575,3.1591,3.162,3.1659,3.1711,3.1745,3.1795,3.1883,3.1892,3.1921,3.193,3.1937,3.1945,3.199,3.2003,3.1869,3.1869,3.1869,0,0,3.1322,3.1355,3.1388,3.146,3.1491,3.1544,3.1512,3.1571,3.161,3.16,3.1673,3.1696,3.1741,3.1823,3.1861,3.1845,3.1984,3.1945,3.195,3.1954,3.1998,3.2011,3.2022,3.1873,3.1872,3.1872,0,0,3.1409,3.1441,3.1504,3.1535,3.1582,3.1598,3.1613,3.1658,3.1672,3.1746,3.1739,3.1786,3.1876,3.1908,3.1935,3.2035,3.2025,3.2051,3.2096,3.214,3.2151,3.216,3.2193,3.2205,3.2059,3.2059,3.2059,0,3.1445,3.1525,3.1537,3.1596,3.1627,3.162,3.1683,3.1713,3.1774,3.1795,3.1776,3.1887,3.1917,3.2005,3.2029,3.2053,3.2069,3.2044,3.2149,3.2158,3.2167,3.2198,3.2211,3.2061,3.2061,3.2061,3.2061,0,3.1565,3.1621,3.1667,3.1724,3.1761,3.1822,3.1842,3.1877,3.1879,3.1897,3.1971,3.2008,3.2063,3.2085,3.2088,3.2174,3.2162,3.2146,3.2111,3.2182,3.2211,3.2224,3.2065,3.2064,3.2063,3.2063,0,0,3.1671,3.1734,3.175,3.1775,3.1827,3.187,3.193,3.1985,3.2014,3.2056,3.2105,3.2181,3.2166,3.2198,3.2204,3.2244,3.2317,3.2223,3.2224,3.2236,3.241,3.2419,3.2433,3.2312,3.2314,3.2316,3.2405,0,3.1761,3.1866,3.1878,3.1972,3.2022,3.2017,3.2069,3.2106,3.2124,3.2169,3.2189,3.2241,3.222,3.2238,3.2277,3.2299,3.2351,3.2294,3.2356,3.2358,3.2342,3.2449,3.2459,3.2541,3.2417,3.2419,3.242,0,3.188,3.1924,3.2023,3.2065,3.2087,3.2134,3.2183,3.2228,3.2269,3.2279,3.2314,3.2315,3.2376,3.234,3.2423,3.2384,3.241,3.2425,3.2429,3.2432,3.2391,3.2453,3.2568,3.2579,3.2439,3.2438,3.2436,0,3.1942,3.2028,3.2097,3.212,3.2172,3.2204,3.2228,3.2266,3.2298,3.2342,3.2362,3.2413,3.244,3.2479,3.2493,3.2466,3.2574,3.2541,3.2583,3.2582,3.2604,3.2601,3.2722,3.2626,3.2626,3.2625,3.2625,0,3.204,3.21,3.2126,3.2169,3.2235,3.2248,3.2313,3.2335,3.237,3.2415,3.2415,3.2458,3.2475,3.2521,3.2533,3.2598,3.2611,3.262,3.2622,3.2619,3.2617,3.2634,3.2627,3.2629,3.2628,3.2627,3.2627,0,3.212,3.2141,3.2216,3.2259,3.2271,3.2318,3.2354,3.2395,3.2413,3.2471,3.2485,3.2513,3.2566,3.2585,3.2651,3.2659,3.2733,3.2732,3.2719,3.2719,3.2759,3.2754,3.2892,3.2909,3.2805,3.2806,3.2806,0,3.218,3.2225,3.2273,3.2304,3.2328,3.2378,3.241,3.2425,3.2458,3.2507,3.2541,3.2595,3.2637,3.2723,3.2749,3.2798,3.2796,3.2841,3.2803,3.2798,3.2793,3.2789,3.2793,3.2847,3.2848,3.2849,3.285,0,3.2281,3.2289,3.2335,3.2385,3.2423,3.2463,3.2501,3.2526,3.2547,3.2584,3.2638,3.2672,3.2738,3.279,3.284,3.2864,3.286,3.2862,3.2874,3.2869,3.2858,3.2862,3.2735,3.2858,3.2857,3.2857,3.2856,3.2856,3.2351,3.239,3.243,3.2481,3.2512,3.2547,3.2587,3.261,3.2655,3.271,3.2716,3.2774,3.2813,3.2881,3.2906,3.2951,3.2939,3.2957,3.2961,3.2964,3.2965,3.2854,3.2961,3.2961,3.2961,3.296,3.296,0,3.245,3.2475,3.2522,3.2576,3.2616,3.261,3.2652,3.2685,3.2736,3.2773,3.2815,3.2877,3.2927,3.2957,3.3007,3.3037,3.3036,3.305,3.3046,3.3051,3.2975,3.2959,3.3049,3.3049,3.3049,3.3049,3.3049,3.3049,3.2506,3.2572,3.2584,3.2665,3.2689,3.2746,3.277,3.2803,3.2832,3.2901,3.2943,3.2962,3.2995,3.3048,3.3093,3.3101,3.3118,3.3132,3.3138,3.3066,3.3057,3.3048,3.3032,3.3136,3.3137,3.3209,3.321,3.321]},{"header":{"parameterUnit":"m.s-1","parameterCategory":1,"la1":30.2991,"la2":30.254,"lo1":-89.0895,"lo2":-89.0444,"dy":0.0017,"dx":0.0017,"nx":28,"ny":28,"refTime":"2024-08-13T09:00:00:Z","depth":0,"parameterNumber":3,"parameterNumberName":"V-component_of_WINDS"},"data":[0,0,0,0,0,0,0,0,0,0,0,0,0,0,0,0,0,0,0,0,0,0,0,0,0,0,0,0,0,0,0,0,0,0,0,0,0,0,0,0,0,0,0,0,0,0,0,0,0,0,0,0,0,0,0,0,0,0,4.0934,4.0934,0,4.0921,4.0921,4.0921,4.0855,4.0853,4.0852,4.085,4.0838,4.0839,4.084,0,0,0,0,0,0,0,0,0,0,0,0,0,4.0904,4.0905,4.0934,4.0934,4.0934,4.0921,4.0921,4.092,4.0855,4.0853,4.0851,4.085,4.0837,4.0839,4.084,0,0,0,0,0,0,0,0,0,0,0,0,0,4.0906,4.0905,4.0934,4.09,4.0896,4.0921,4.0921,4.092,4.0855,4.0853,4.0851,4.0849,4.0837,4.0838,4.084,4.0897,0,0,4.0845,4.0846,0,0,0,0,0,0,0,0,4.0906,4.0908,4.0905,4.0902,4.0898,4.0887,4.0905,4.0913,4.0856,4.0871,4.085,4.0847,4.0856,4.0856,4.0859,4.0897,4.0896,4.0845,4.0846,4.0847,4.0848,0,0,0,0,0,0,0,4.0906,4.0908,4.0929,4.0905,4.0901,4.0885,4.0883,4.0906,4.0877,4.087,4.0865,4.0864,4.0854,4.0857,4.0858,4.0896,4.0845,4.0847,4.0848,4.0849,4.0979,4.0981,0,0,0,0,0,0,4.0911,4.0908,4.0929,4.0929,4.0897,4.0887,4.0885,4.0893,4.0876,4.0872,4.0866,4.0861,4.0855,4.0856,4.0857,4.0922,4.0847,4.0849,4.085,4.0977,4.098,4.0982,0,0,0,0,0,0,4.091,4.0913,4.093,4.0917,4.0918,4.089,4.09,4.0894,4.0897,4.0874,4.0868,4.0875,4.0854,4.0855,4.0887,4.0921,4.0849,4.0851,4.0974,4.0977,4.0981,4.1053,0,0,0,0,0,0,4.091,4.0914,4.0935,4.0918,4.0919,4.096,4.0902,4.0896,4.09,4.0894,4.088,4.0876,4.0852,4.0885,4.0889,4.0922,4.0852,4.097,4.0975,4.098,4.1047,4.1058,4.1068,0,0,0,0,0,4.0909,4.0956,4.0936,4.0939,4.0945,4.0962,4.0963,4.0934,4.0903,4.0924,4.0909,4.0876,4.0917,4.0889,4.0893,4.0926,4.0968,4.0974,4.0979,4.1042,4.1056,4.1068,0,0,0,0,0,0,4.0978,4.0953,4.0931,4.0974,4.0971,4.0951,4.0977,4.0949,4.0955,4.0949,4.0913,4.091,4.0948,4.0941,4.091,4.098,4.0937,4.0943,4.0984,4.0996,4.1007,4.1007,4.0854,0,0,0,0,0,4.0998,4.1015,4.0992,4.1032,4.1032,4.1005,4.1012,4.0989,4.0985,4.0983,4.097,4.0967,4.0979,4.0987,4.0997,4.1046,4.1042,4.1071,4.1081,4.109,4.1096,4.112,4.1133,4.1,4.1,4.1,0,0,4.1041,4.1029,4.1041,4.1046,4.1041,4.1058,4.1004,4.1025,4.1038,4.0986,4.1016,4.1007,4.1001,4.1042,4.1059,4.1037,4.1132,4.1097,4.1104,4.1105,4.1127,4.114,4.1151,4.1004,4.1003,4.1003,0,0,4.1126,4.1119,4.1151,4.1147,4.1139,4.1121,4.1129,4.1114,4.1105,4.1134,4.1096,4.1111,4.1132,4.1129,4.113,4.1214,4.1184,4.1218,4.1272,4.1297,4.1307,4.1316,4.1345,4.1356,4.1225,4.1225,4.1225,0,4.1179,4.1203,4.1171,4.1194,4.1197,4.1151,4.1183,4.1181,4.1177,4.118,4.1155,4.118,4.1174,4.1213,4.1233,4.1236,4.1243,4.1219,4.1308,4.1317,4.1325,4.1352,4.1363,4.1229,4.1228,4.1228,4.1228,0,4.1269,4.1286,4.1313,4.131,4.1316,4.1344,4.1316,4.1326,4.1303,4.1288,4.1318,4.1308,4.1314,4.1322,4.13,4.1358,4.1344,4.1314,4.127,4.1342,4.1367,4.1377,4.1235,4.1233,4.1232,4.1231,0,0,4.1397,4.1375,4.1385,4.1383,4.1371,4.1384,4.141,4.1416,4.1424,4.1424,4.1444,4.1463,4.1435,4.1437,4.1414,4.1436,4.1502,4.1403,4.1403,4.1421,4.1564,4.1586,4.1598,4.1482,4.1484,4.1486,4.1564,0,4.1477,4.1519,4.1491,4.1537,4.1552,4.1509,4.1531,4.1526,4.1513,4.1524,4.1509,4.1522,4.1485,4.1485,4.1505,4.149,4.153,4.1484,4.1501,4.1502,4.1502,4.1611,4.1635,4.1709,4.1574,4.1575,4.1577,0,4.1577,4.1579,4.1627,4.1611,4.1617,4.1637,4.164,4.1651,4.1645,4.1633,4.1635,4.1607,4.1631,4.1588,4.1621,4.159,4.1595,4.1589,4.1591,4.1591,4.1543,4.1613,4.1732,4.1743,4.1592,4.1591,4.1589,0,4.1664,4.168,4.171,4.1709,4.1692,4.1707,4.1701,4.1693,4.1698,4.17,4.1703,4.1709,4.1712,4.1717,4.1691,4.1662,4.1727,4.1682,4.1717,4.1718,4.1732,4.1731,4.1853,4.1738,4.1737,4.1737,4.1737,0,4.1756,4.1787,4.1749,4.1767,4.18,4.1768,4.1801,4.179,4.1783,4.1799,4.1762,4.1778,4.1743,4.1756,4.1736,4.1765,4.1767,4.1759,4.1753,4.1761,4.1762,4.1763,4.1757,4.174,4.1739,4.1739,4.1738,0,4.1859,4.1835,4.1865,4.1846,4.1842,4.1867,4.1851,4.1867,4.1851,4.1871,4.1874,4.1849,4.1861,4.1836,4.1846,4.1833,4.1874,4.186,4.1876,4.1871,4.1908,4.1905,4.2033,4.2048,4.1925,4.1926,4.1927,0,4.1919,4.1941,4.1925,4.1932,4.1927,4.194,4.1945,4.1914,4.192,4.1915,4.1932,4.1941,4.1946,4.1969,4.1951,4.1958,4.1944,4.1989,4.1945,4.1952,4.1944,4.1942,4.1944,4.1998,4.1999,4.2,4.2001,0,4.2028,4.2014,4.2022,4.2026,4.2032,4.2033,4.2032,4.2041,4.2008,4.2017,4.2028,4.2033,4.2042,4.2051,4.2054,4.2048,4.2019,4.2015,4.2024,4.2032,4.204,4.2035,4.1899,4.2012,4.2011,4.201,4.201,4.2009,4.211,4.2127,4.2118,4.2128,4.2123,4.2123,4.2137,4.2122,4.2132,4.2136,4.2117,4.2133,4.2126,4.2127,4.2124,4.2136,4.2116,4.2128,4.2131,4.2135,4.214,4.2039,4.2136,4.2136,4.2136,4.2136,4.2135,0,4.2216,4.2207,4.2217,4.2216,4.2223,4.2195,4.2192,4.2201,4.2215,4.2211,4.2216,4.223,4.2239,4.2222,4.2229,4.2242,4.2229,4.2244,4.2243,4.2242,4.2158,4.215,4.2255,4.2255,4.2255,4.2255,4.2255,4.2255,4.2272,4.2299,4.2285,4.231,4.2301,4.2316,4.2317,4.2316,4.2312,4.2329,4.2336,4.2325,4.2315,4.2321,4.2328,4.2323,4.2326,4.2346,4.2337,4.2259,4.2247,4.2236,4.2228,4.2348,4.2348,4.2419,4.2419,4.242]}]]